Hourly Weather Lukawka

Today, 10 May, Monday

Time Temperature Precipitation Wind Pressure Humidity
00:00 +8°C° 0 mm 4 mps 749 mmHg 85%
01:00 +8°C° 0 mm 4 mps 749 mmHg 87%
02:00 +7°C° 0 mm 4 mps 749 mmHg 86%
03:00 +7°C° 0 mm 4 mps 749 mmHg 86%
04:00 +7°C° 0 mm 4 mps 749 mmHg 85%
05:00 +9°C° 0 mm 5 mps 749 mmHg 80%
06:00 +12°C° 0 mm 5 mps 749 mmHg 74%
07:00 +13°C° 0 mm 6 mps 749 mmHg 69%
08:00 +15°C° 0 mm 6 mps 749 mmHg 64%
09:00 +17°C° 0 mm 7 mps 749 mmHg 59%
10:00 +18°C° 0 mm 7 mps 748 mmHg 54%
11:00 +20°C° 0 mm 7 mps 748 mmHg 52%
12:00 +21°C° 0 mm 7 mps 748 mmHg 51%
13:00 +22°C° 0 mm 7 mps 748 mmHg 49%
14:00 +22°C° 0 mm 7 mps 748 mmHg 53%
15:00 +22°C° 0 mm 6 mps 748 mmHg 56%
16:00 +22°C° 0 mm 6 mps 747 mmHg 60%
17:00 +20°C° 0 mm 6 mps 748 mmHg 65%
18:00 +17°C° 0 mm 6 mps 748 mmHg 70%
19:00 +16°C° 0 mm 6 mps 748 mmHg 76%
20:00 +15°C° 0 mm 5 mps 748 mmHg 78%
21:00 +14°C° 0 mm 5 mps 748 mmHg 80%
22:00 +13°C° 0 mm 5 mps 748 mmHg 82%
23:00 +12°C° 0 mm 5 mps 748 mmHg 82%

Tomorrow, 11 May, Tuesday

Time Temperature Precipitation Wind Pressure Humidity
00:00 +12°C° 0 mm 5 mps 748 mmHg 83%
01:00 +10°C° 0 mm 5 mps 748 mmHg 83%
02:00 +10°C° 0 mm 6 mps 748 mmHg 82%
03:00 +10°C° 0 mm 6 mps 747 mmHg 81%
04:00 +9°C° 0 mm 6 mps 747 mmHg 81%
05:00 +10°C° 0 mm 7 mps 747 mmHg 78%
06:00 +12°C° 0 mm 7 mps 747 mmHg 74%
07:00 +14°C° 0 mm 7 mps 747 mmHg 71%
08:00 +15°C° 0 mm 8 mps 747 mmHg 67%
09:00 +17°C° 0 mm 8 mps 747 mmHg 62%
10:00 +19°C° 0 mm 9 mps 747 mmHg 57%
11:00 +19°C° 0 mm 9 mps 747 mmHg 56%
12:00 +21°C° 0 mm 8 mps 747 mmHg 55%
13:00 +22°C° 0 mm 8 mps 746 mmHg 53%
14:00 +21°C° 0 mm 8 mps 746 mmHg 56%
15:00 +21°C° 0 mm 8 mps 746 mmHg 59%
16:00 +21°C° 0 mm 7 mps 746 mmHg 62%
17:00 +18°C° 0 mm 7 mps 746 mmHg 64%
18:00 +16°C° 0 mm 7 mps 746 mmHg 65%
19:00 +15°C° 0 mm 6 mps 745 mmHg 67%
20:00 +14°C° 0 mm 6 mps 745 mmHg 66%
21:00 +13°C° 0 mm 6 mps 745 mmHg 65%
22:00 +13°C° 0 mm 6 mps 745 mmHg 63%
23:00 +11°C° 0 mm 6 mps 745 mmHg 67%

Day after tomorrow, 12 May, Wednesday

Time Temperature Precipitation Wind Pressure Humidity
00:00 +11°C° 0 mm 6 mps 745 mmHg 70%
01:00 +11°C° 0 mm 6 mps 745 mmHg 73%
02:00 +10°C° 0 mm 6 mps 744 mmHg 78%
03:00 +10°C° 0 mm 6 mps 744 mmHg 82%
04:00 +10°C° 0 mm 5 mps 744 mmHg 87%
05:00 +11°C° 0 mm 6 mps 744 mmHg 84%
06:00 +14°C° 0 mm 7 mps 744 mmHg 80%
07:00 +15°C° 0 mm 7 mps 744 mmHg 77%
08:00 +16°C° 0 mm 8 mps 744 mmHg 73%
09:00 +18°C° 0 mm 8 mps 744 mmHg 70%
10:00 +19°C° 0 mm 9 mps 744 mmHg 66%
11:00 +18°C° 0 mm 9 mps 743 mmHg 63%
12:00 +18°C° 0 mm 8 mps 743 mmHg 60%
13:00 +18°C° 0 mm 8 mps 743 mmHg 57%
14:00 +18°C° 0 mm 8 mps 743 mmHg 58%
15:00 +17°C° 0 mm 8 mps 743 mmHg 58%
16:00 +17°C° 0 mm 7 mps 743 mmHg 59%
17:00 +15°C° 0 mm 7 mps 742 mmHg 62%
18:00 +14°C° 0 mm 7 mps 742 mmHg 64%
19:00 +12°C° 0 mm 7 mps 742 mmHg 67%
20:00 +11°C° 0 mm 6 mps 742 mmHg 69%
21:00 +10°C° 0 mm 6 mps 742 mmHg 72%
22:00 +9°C° 0 mm 5 mps 742 mmHg 75%
23:00 +8°C° 0 mm 5 mps 741 mmHg 78%

13 May, Thursday

Time Temperature Precipitation Wind Pressure Humidity
00:00 +7°C° 0 mm 4 mps 741 mmHg 82%
01:00 +6°C° 0 mm 4 mps 740 mmHg 85%
02:00 +6°C° 0 mm 4 mps 740 mmHg 87%
03:00 +5°C° 0 mm 4 mps 739 mmHg 88%
04:00 +5°C° 0 mm 3 mps 739 mmHg 90%
05:00 +6°C° 0 mm 4 mps 738 mmHg 85%
06:00 +8°C° 0 mm 4 mps 738 mmHg 79%
07:00 +10°C° 0 mm 5 mps 738 mmHg 74%
08:00 +12°C° 0 mm 4 mps 738 mmHg 72%
09:00 +13°C° 0 mm 4 mps 737 mmHg 69%
10:00 +15°C° 0 mm 4 mps 737 mmHg 67%
11:00 +14°C° 0 mm 4 mps 737 mmHg 69%
12:00 +14°C° 0 mm 4 mps 737 mmHg 72%
13:00 +14°C° 0 mm 4 mps 737 mmHg 74%
14:00 +14°C° 0 mm 3 mps 737 mmHg 76%
15:00 +14°C° 0 mm 3 mps 736 mmHg 77%
16:00 +16°C° 0 mm 2 mps 736 mmHg 78%
17:00 +15°C° 0.1 mm 2 mps 736 mmHg 83%
18:00 +14°C° 0.1 mm 2 mps 736 mmHg 87%
19:00 +13°C° 0.1 mm 3 mps 736 mmHg 92%
20:00 +12°C° 0.1 mm 3 mps 736 mmHg 93%
21:00 +12°C° 0.1 mm 3 mps 736 mmHg 95%
22:00 +11°C° 0.1 mm 4 mps 737 mmHg 96%
23:00 +11°C° 0.1 mm 4 mps 737 mmHg 95%

14 May, Friday

Time Temperature Precipitation Wind Pressure Humidity
00:00 +11°C° 0.1 mm 4 mps 737 mmHg 95%
01:00 +11°C° 0.1 mm 4 mps 737 mmHg 94%
02:00 +11°C° 0 mm 3 mps 737 mmHg 94%
03:00 +10°C° 0 mm 3 mps 737 mmHg 93%
04:00 +10°C° 0 mm 3 mps 738 mmHg 92%
05:00 +11°C° 0 mm 3 mps 738 mmHg 89%
06:00 +12°C° 0 mm 3 mps 738 mmHg 85%
07:00 +12°C° 0 mm 4 mps 738 mmHg 81%
08:00 +13°C° 0 mm 4 mps 738 mmHg 76%
09:00 +14°C° 0 mm 4 mps 739 mmHg 71%
10:00 +15°C° 0 mm 5 mps 739 mmHg 66%
11:00 +16°C° 0 mm 5 mps 739 mmHg 65%
12:00 +16°C° 0 mm 5 mps 739 mmHg 64%
13:00 +16°C° 0 mm 5 mps 739 mmHg 63%
14:00 +18°C° 0.1 mm 4 mps 740 mmHg 63%
15:00 +18°C° 0.1 mm 4 mps 740 mmHg 63%
16:00 +18°C° 0.1 mm 4 mps 740 mmHg 64%
17:00 +16°C° 0 mm 3 mps 740 mmHg 70%
18:00 +14°C° 0 mm 3 mps 740 mmHg 77%
19:00 +13°C° 0 mm 2 mps 741 mmHg 83%
20:00 +12°C° 0 mm 2 mps 741 mmHg 86%
21:00 +10°C° 0 mm 3 mps 741 mmHg 88%
22:00 +10°C° 0 mm 3 mps 742 mmHg 91%
23:00 +9°C° 0 mm 3 mps 742 mmHg 92%

15 May, Saturday

Time Temperature Precipitation Wind Pressure Humidity
00:00 +8°C° 0 mm 2 mps 742 mmHg 94%
01:00 +8°C° 0 mm 2 mps 742 mmHg 95%
02:00 +8°C° 0 mm 2 mps 743 mmHg 95%
03:00 +8°C° 0 mm 2 mps 743 mmHg 95%
04:00 +8°C° 0 mm 2 mps 743 mmHg 94%
05:00 +9°C° 0 mm 2 mps 743 mmHg 93%
06:00 +10°C° 0 mm 2 mps 744 mmHg 91%
07:00 +12°C° 0 mm 2 mps 744 mmHg 89%
08:00 +13°C° 0 mm 2 mps 744 mmHg 86%
09:00 +14°C° 0 mm 2 mps 744 mmHg 82%
10:00 +15°C° 0 mm 2 mps 745 mmHg 79%
11:00 +16°C° 0.1 mm 2 mps 745 mmHg 73%
12:00 +17°C° 0.1 mm 2 mps 745 mmHg 67%
13:00 +20°C° 0.1 mm 1 mps 745 mmHg 61%
14:00 +20°C° 0.3 mm 1 mps 744 mmHg 61%
15:00 +20°C° 0.3 mm 1 mps 744 mmHg 61%
16:00 +20°C° 0.3 mm 1 mps 744 mmHg 61%
17:00 +19°C° 0.3 mm 1 mps 744 mmHg 67%
18:00 +16°C° 0.3 mm 1 mps 744 mmHg 73%
19:00 +15°C° 0.3 mm 1 mps 744 mmHg 80%
20:00 +14°C° 0 mm 1 mps 744 mmHg 82%
21:00 +13°C° 0 mm 1 mps 744 mmHg 85%
22:00 +13°C° 0 mm 2 mps 744 mmHg 88%
23:00 +12°C° 0 mm 2 mps 744 mmHg 89%
Show more

We Need Your Consent

Meteoprog and our Service Providers may store and access personal data such as cookies, device identifiers or other similar technologies on your device and process such data to personalise content and ads, as well as provide social media features and to analyse the traffic.

  • Store and/or access information on your device

    Cookies, device identifiers or other information can be stored or accessed on your device for the purposes indicated above.

  • Personalised ads and content, ad and content measurement, audience insights, and products development

    Ads and content can be personalised based on a profile. More data can be added to better personalise ads and content. Ad and content performance can be measured. Insights about the audience who saw the ads and content can be derived. Such data can be used to develop or improve user’s experience, systems and software.

By clicking ‘I Agree’ you will allow the use of indicated cookies, device identifiers, web beacons or other similar technologies. Your settings can be changed in the browser on your device.

For certain purposes, legitimate interests may be relied on, rather than consent. You can read more about this in our Privacy and Cookie Policy.